Location: *
(43.9905°S, 176.4941°W)
Time: 06:49:02
(UTC+00:00)

Mayak - Pass Details

Date: 08 December 2019
Orbit: 580 x 602 km, 97.5° (Epoch: 19 January)

Event Time Altitude Azimuth Distance (km) Brightness Sun altitude
Exits shadow 09:47:48 29° 335° (NNW) 1,096 -0.2 -18.7°
Maximum altitude 09:49:33 47° 279° (W) 789 -0.5 -18.8°
Drops below altitude 10° 09:53:38 10° 204° (SSW) 1,940 2.7 -19.2°
Sets 09:55:53 0° 198° (SSW) 2,852 3.9 -19.3°
